Location: Alincthun
(50.7310°N, 1.8022°E)
Time: 08:01:42
(UTC+00:00)

Cosmos 1943 Rocket - Pass Details

Date: 17 February 2020
Orbit: 814 x 842 km, 71.0° (Epoch: 30 March)

Event Time Altitude Azimuth Distance (km) Brightness Sun altitude
Exits shadow 02:49:52 20° 21° (NNE) 1,838 4.3 -39.2°
Maximum altitude 02:50:54 20° 36° (NE) 1,789 4.4 -39.1°
Drops below altitude 10° 02:54:58 10° 84° (E) 2,407 5.1 -38.5°
Sets 02:58:01 0° 101° (E) 3,336 5.8 -38.1°
